Location: Costa Valle Imagna
(45.8000°N, 9.5000°E)
Time: 02:59:26
(UTC+00:00)

Cosmos 1500 Rocket - Pass Details

Date: 17 February 2020
Orbit: 602 x 632 km, 82.5° (Epoch: 03 April)

Event Time Altitude Azimuth Distance (km) Brightness Sun altitude
Rises 04:55:38 0° 346° (NNW) 2,930 6.9 -15.7°
Reaches altitude 10° 04:57:56 10° 341° (NNW) 2,014 6.0 -15.3°
Maximum altitude 05:02:14 50° 267° (W) 802 3.7 -14.6°
Drops below altitude 10° 05:06:28 10° 192° (SSW) 1,981 6.1 -13.8°
Sets 05:08:43 0° 187° (S) 2,876 7.0 -13.4°
